Regional Weather Roundup
Issued by NWS Kansas City/Pleasant Hill, MO

Home | Current Version | Previous Version | Text Only | Print | Product List | Glossary On
Versions: 1 2 3 4 5 6 7 8 9 10 11 12 13 14 15 16 17 18 19 20 21 22 23 24 25 26 27 28 29 30 31 32 33 34 35 36 37 38 39 40 41 42 43 44 45 46 47 48 49 50
000
ASUS43 KEAX 021111
RWREAX

WEATHER ROUNDUP FOR EASTERN KANSAS AND NORTHWEST MISSOURI
NATIONAL WEATHER SERVICE KANSAS CITY/PLEASANT HILL MO
600 AM CDT TUE SEP 02 2014

KSZ040-057-103>105-MOZ028-029-037-043-021200-
...KANSAS CITY METROPOLITAN AREA...

CITY           SKY/WX    TMP DP  RH WIND       PRES   REMARKS
K.C. INTL      MOCLDY    65  65 100 CALM      29.92S FOG
K.C. DOWNTOWN  CLOUDY    70  68  93 CALM      29.91R FOG
LEES SUMMIT    CLOUDY    70  69  97 CALM      29.93R FOG
OLATHE - IXD   CLOUDY    69  69 100 NE5       29.93R FOG
OLATHE - OJC   CLOUDY    68  68 100 E5        29.92S FOG
LAWRENCE       FOG      N/A N/A N/A CALM      29.92S VSB 1/4

$$

MOZ001>008-011>017-020>025-030>033-038>040-044>046-053-054-021200-
...NORTHERN AND CENTRAL MISSOURI...

CITY           SKY/WX    TMP DP  RH WIND       PRES   REMARKS
ST. JOSEPH     MOCLDY    59  59 100 CALM      29.91S FOG
MOSBY          FOG       66  66 100 CALM      29.91R VSB 1/4
WHITEMAN AFB   CLOUDY    69  68  97 N2        29.91S
CLINTON        CLOUDY    72  72 100 CALM      29.92F
SEDALIA        CLOUDY    72  69  90 CALM      29.92F
WARSAW         NOT AVBL
MARSHALL       CLOUDY    72  72 100 CALM      29.93S
CHILLICOTHE      N/A     64  63  96 CALM      29.91F
MOBERLY        CLOUDY    70  66  88 S3        29.92F
KIRKSVILLE     FOG       65  64  97 CALM      29.90F VSB 1/4

$$

MOZ041-047>049-056>058-063>065-088>090-097-021200-
...EASTERN AND SOUTHERN MISSOURI...

CITY           SKY/WX    TMP DP  RH WIND       PRES   REMARKS
ST. LOUIS INTL CLOUDY    71  68  90 S8        29.91R
SPIRIT OF STL  CLOUDY    69  67  93 CALM      29.90R
COLUMBIA       CLOUDY    70  69  97 CALM      29.93R
JEFFERSON CITY CLOUDY    71  69  93 NW3       29.92R
MEXICO         CLOUDY   N/A N/A N/A CALM      29.91S
HANNIBAL       CLOUDY    70  66  88 W3        29.91S
ROLLA            N/A    N/A N/A N/A MISG      29.92R
LEBANON        CLOUDY    70  66  88 S3        29.97
OSAGE BEACH    CLOUDY    72  68  88 SW5       29.93R
SPRINGFIELD    LGT RAIN  68  65  90 E3        29.97R
BRANSON        LGT RAIN  66  66 100 SW5       30.01F
NEVADA         CLOUDY    68  66  94 S5        29.95R
JOPLIN         TSTM      68  67  96 S12       29.98R
WEST PLAINS    LGT RAIN  68  65  90 W6        30.04R

$$

IAZ060-094-KSZ022-034>040-054-083-096-NEZ052-066-093-021200-
...KANSAS...SOUTHEAST NEBRASKA AND IOWA...

CITY           SKY/WX    TMP DP  RH WIND       PRES   REMARKS
TOPEKA         FOG       67  67 100 NW3       29.93S VSB 1/4
MANHATTAN      MOCLDY    63  62  97 CALM      29.93S
EMPORIA        CLOUDY    70  69  97 CALM      29.93R
CHANUTE        CLOUDY    70  68  93 SE3       29.93R
WICHITA        CLOUDY    72  68  87 CALM      29.92R
OMAHA          CLEAR     60  56  86 CALM      29.95S
LINCOLN        CLEAR     58  55  90 CALM      29.97F
FALLS CITY     CLEAR     60  59  96 N6        29.94R
LAMONI         FOG       61  60  97 NW3       29.92R VSB 1/4
DES MOINES     PTCLDY    62  58  86 NW3       29.90S

$$



USA.gov is the U.S. government's official web portal to all federal, state and local government web resources and services.